Location: ????? ??????
(37.8317°N, 23.8750°E)
Time: 13:03:21
(UTC+00:00)

ATLAS 5 CENTAUR R/B - Pass Details

Date: 20 January 2021
Orbit: 511 x 1147 km, 63.3° (Epoch: 16 February)

Event Time Altitude Azimuth Distance (km) Brightness Sun altitude
Rises 16:56:49 0° 271° (W) 2,674 6.4 -16.1°
Reaches altitude 10° 17:00:59 10° 315° (NW) 1,885 4.5 -16.9°
Maximum altitude 17:01:43 10° 325° (NW) 1,883 4.3 -17.1°
Drops below altitude 10° 17:02:28 10° 335° (NNW) 1,931 4.2 -17.2°
Enters shadow 17:05:58 - 10° (N) 2,665 4.6 -17.9°
